Data start date =,1/1/1959
Data end date/time =,5/5/2024 12:00
""
""
Date/Time,LockDam_06
,Flow
UTC,cfs
,Ave
1/2/1959 12:00,9900
1/3/1959 12:00,9900
1/4/1959 12:00,9900
1/5/1959 12:00,9900
1/6/1959 12:00,9800
1/7/1959 12:00,9800
1/8/1959 12:00,9800
1/9/1959 12:00,9700
1/10/1959 12:00,9700
1/11/1959 12:00,9700
1/12/1959 12:00,9700
1/13/1959 12:00,9700
1/14/1959 12:00,9000
1/15/1959 12:00,8100
1/16/1959 12:00,8100
1/17/1959 12:00,8100
1/18/1959 12:00,8000
1/19/1959 12:00,8100
1/20/1959 12:00,8200
1/21/1959 12:00,8300
1/22/1959 12:00,8400
1/23/1959 12:00,8400
1/24/1959 12:00,8400
1/25/1959 12:00,8400
1/26/1959 12:00,8400
1/27/1959 12:00,8300
1/28/1959 12:00,8200
1/29/1959 12:00,8200
1/30/1959 12:00,8200
1/31/1959 12:00,8300
2/1/1959 12:00,8400
2/2/1959 12:00,8400
2/3/1959 12:00,8400
2/4/1959 12:00,8300
2/5/1959 12:00,8300
2/6/1959 12:00,8200
2/7/1959 12:00,8200
2/8/1959 12:00,8100
2/9/1959 12:00,8200
2/10/1959 12:00,8200
2/11/1959 12:00,8300
2/12/1959 12:00,8600
2/13/1959 12:00,8500
2/14/1959 12:00,8300
2/15/1959 12:00,8400
2/16/1959 12:00,8400
2/17/1959 12:00,8800
2/18/1959 12:00,9000
2/19/1959 12:00,9000
2/20/1959 12:00,9000
2/21/1959 12:00,9000
2/22/1959 12:00,8900
2/23/1959 12:00,8800
2/24/1959 12:00,8800
2/25/1959 12:00,8800
2/26/1959 12:00,8800
2/27/1959 12:00,8900
2/28/1959 12:00,8900
3/1/1959 12:00,8900
3/2/1959 12:00,10500
3/3/1959 12:00,10300
3/4/1959 12:00,9700
3/5/1959 12:00,9700
3/6/1959 12:00,10000
3/7/1959 12:00,10300
3/8/1959 12:00,10300
3/9/1959 12:00,10300
3/10/1959 12:00,10100
3/11/1959 12:00,9700
3/12/1959 12:00,9900
3/13/1959 12:00,12000
3/14/1959 12:00,13500
3/15/1959 12:00,13100
3/16/1959 12:00,13300
3/17/1959 12:00,13300
3/18/1959 12:00,12700
3/19/1959 12:00,14200
3/20/1959 12:00,17600
3/21/1959 12:00,22000
3/22/1959 12:00,21700
3/23/1959 12:00,22500
3/24/1959 12:00,26500
3/25/1959 12:00,31000
3/26/1959 12:00,29400
3/27/1959 12:00,24100
3/28/1959 12:00,22800
3/29/1959 12:00,26100
3/30/1959 12:00,25500
3/31/1959 12:00,26600
4/1/1959 12:00,26000
4/2/1959 12:00,32400
4/3/1959 12:00,28000
4/4/1959 12:00,19000
4/5/1959 12:00,19900
4/6/1959 12:00,17000
4/7/1959 12:00,16500
4/8/1959 12:00,16400
4/9/1959 12:00,17900
4/10/1959 12:00,16100
4/11/1959 12:00,17000
4/12/1959 12:00,17300
4/13/1959 12:00,17400
4/14/1959 12:00,15200
4/15/1959 12:00,14700
4/16/1959 12:00,14200
4/17/1959 12:00,17400
4/18/1959 12:00,15900
4/19/1959 12:00,16900
4/20/1959 12:00,20200
4/21/1959 12:00,23500
4/22/1959 12:00,21500
4/23/1959 12:00,18700
4/24/1959 12:00,19800
4/25/1959 12:00,18200
4/26/1959 12:00,16400
4/27/1959 12:00,15300
4/28/1959 12:00,15700
4/29/1959 12:00,15600
4/30/1959 12:00,15400
5/1/1959 12:00,15300
5/2/1959 12:00,14300
5/3/1959 12:00,13900
5/4/1959 12:00,13000
5/5/1959 12:00,13000
5/6/1959 12:00,26200
5/7/1959 12:00,33700
5/8/1959 12:00,41800
5/9/1959 12:00,39300
5/10/1959 12:00,37000
5/11/1959 12:00,37700
5/12/1959 12:00,39200
5/13/1959 12:00,32200
5/14/1959 12:00,33900
5/15/1959 12:00,32700
5/16/1959 12:00,30300
5/17/1959 12:00,28500
5/18/1959 12:00,24000
5/19/1959 12:00,21700
5/20/1959 12:00,24400
5/21/1959 12:00,27000
5/22/1959 12:00,23400
5/23/1959 12:00,19500
5/24/1959 12:00,18100
5/25/1959 12:00,16800
5/26/1959 12:00,20200
5/27/1959 12:00,24700
5/28/1959 12:00,26400
5/29/1959 12:00,34200
5/30/1959 12:00,36100
5/31/1959 12:00,34700
6/1/1959 12:00,28600
6/2/1959 12:00,29600
6/3/1959 12:00,28700
6/4/1959 12:00,35500
6/5/1959 12:00,38000
6/6/1959 12:00,38100
6/7/1959 12:00,39400
6/8/1959 12:00,38400
6/9/1959 12:00,33500
6/10/1959 12:00,34200
6/11/1959 12:00,33500
6/12/1959 12:00,32800
6/13/1959 12:00,28800
6/14/1959 12:00,19200
6/15/1959 12:00,14100
6/16/1959 12:00,16600
6/17/1959 12:00,19300
6/18/1959 12:00,17000
6/19/1959 12:00,14900
6/20/1959 12:00,13600
6/21/1959 12:00,13700
6/22/1959 12:00,13800
6/23/1959 12:00,12700
6/24/1959 12:00,12600
6/25/1959 12:00,14300
6/26/1959 12:00,20500
6/27/1959 12:00,26100
6/28/1959 12:00,19300
6/29/1959 12:00,25700
6/30/1959 12:00,22800
7/1/1959 12:00,22200
7/2/1959 12:00,21700
7/3/1959 12:00,21100
7/4/1959 12:00,20100
7/5/1959 12:00,19100
7/6/1959 12:00,16000
7/7/1959 12:00,16100
7/8/1959 12:00,17000
7/9/1959 12:00,31000
7/10/1959 12:00,41400
7/11/1959 12:00,37800
7/12/1959 12:00,38700
7/13/1959 12:00,42800
7/14/1959 12:00,37400
7/15/1959 12:00,32200
7/16/1959 12:00,25000
7/17/1959 12:00,16700
7/18/1959 12:00,17000
7/19/1959 12:00,21200
7/20/1959 12:00,18600
7/21/1959 12:00,17500
7/22/1959 12:00,15400
7/23/1959 12:00,15500
7/24/1959 12:00,14900
7/25/1959 12:00,13900
7/26/1959 12:00,13200
7/27/1959 12:00,12800
7/28/1959 12:00,12800
7/29/1959 12:00,11400
7/30/1959 12:00,10100
7/31/1959 12:00,10000
8/1/1959 12:00,8900
8/2/1959 12:00,9900
8/3/1959 12:00,11100
8/4/1959 12:00,9900
8/5/1959 12:00,9200
8/6/1959 12:00,10100
8/7/1959 12:00,9800
8/8/1959 12:00,9300
8/9/1959 12:00,8900
8/10/1959 12:00,8600
8/11/1959 12:00,8500
8/12/1959 12:00,8600
8/13/1959 12:00,8500
8/14/1959 12:00,9700
8/15/1959 12:00,11100
8/16/1959 12:00,13000
8/17/1959 12:00,14200
8/18/1959 12:00,12000
8/19/1959 12:00,10400
8/20/1959 12:00,10600
8/21/1959 12:00,12700
8/22/1959 12:00,16400
8/23/1959 12:00,28700
8/24/1959 12:00,27500
8/25/1959 12:00,22500
8/26/1959 12:00,22900
8/27/1959 12:00,24100
8/28/1959 12:00,24500
8/29/1959 12:00,23300
8/30/1959 12:00,30000
8/31/1959 12:00,29700
9/1/1959 12:00,34000
9/2/1959 12:00,41700
9/3/1959 12:00,37300
9/4/1959 12:00,26800
9/5/1959 12:00,27000
9/6/1959 12:00,27500
9/7/1959 12:00,24200
9/8/1959 12:00,24600
9/9/1959 12:00,25300
9/10/1959 12:00,25800
9/11/1959 12:00,24900
9/12/1959 12:00,24300
9/13/1959 12:00,21500
9/14/1959 12:00,22400
9/15/1959 12:00,20200
9/16/1959 12:00,17600
9/17/1959 12:00,15600
9/18/1959 12:00,15600
9/19/1959 12:00,14600
9/20/1959 12:00,14700
9/21/1959 12:00,16200
9/22/1959 12:00,22600
9/23/1959 12:00,40400
9/24/1959 12:00,38400
9/25/1959 12:00,35900
9/26/1959 12:00,35000
9/27/1959 12:00,38900
9/28/1959 12:00,38500
9/29/1959 12:00,39800
9/30/1959 12:00,39300
10/1/1959 12:00,37900
10/2/1959 12:00,37500
10/3/1959 12:00,34800
10/4/1959 12:00,32800
10/5/1959 12:00,26600
10/6/1959 12:00,29700
10/7/1959 12:00,30700
10/8/1959 12:00,29300
10/9/1959 12:00,24800
10/10/1959 12:00,23900
10/11/1959 12:00,24200
10/12/1959 12:00,24600
10/13/1959 12:00,22100
10/14/1959 12:00,20700
10/15/1959 12:00,20500
10/16/1959 12:00,21100
10/17/1959 12:00,21200
10/18/1959 12:00,20200
10/19/1959 12:00,19000
10/20/1959 12:00,18700
10/21/1959 12:00,17700
10/22/1959 12:00,18000
10/23/1959 12:00,20200
10/24/1959 12:00,21500
10/25/1959 12:00,22500
10/26/1959 12:00,29100
10/27/1959 12:00,27800
10/28/1959 12:00,26600
10/29/1959 12:00,25600
10/30/1959 12:00,24800
10/31/1959 12:00,25300
11/1/1959 12:00,23800
11/2/1959 12:00,22800
11/3/1959 12:00,19000
11/4/1959 12:00,25700
11/5/1959 12:00,25700
11/6/1959 12:00,25600
11/7/1959 12:00,23700
11/8/1959 12:00,21000
11/9/1959 12:00,17600
11/10/1959 12:00,18500
11/11/1959 12:00,18500
11/12/1959 12:00,21300
11/13/1959 12:00,21400
11/14/1959 12:00,16300
11/15/1959 12:00,13500
11/16/1959 12:00,12000
11/17/1959 12:00,11300
11/18/1959 12:00,10700
11/19/1959 12:00,10300
11/20/1959 12:00,10400
11/21/1959 12:00,11200
11/22/1959 12:00,14600
11/23/1959 12:00,20200
11/24/1959 12:00,20000
11/25/1959 12:00,19900
11/26/1959 12:00,16200
11/27/1959 12:00,15300
11/28/1959 12:00,15400
11/29/1959 12:00,15200
11/30/1959 12:00,15100
12/1/1959 12:00,14900
12/2/1959 12:00,14400
12/3/1959 12:00,14400
12/4/1959 12:00,14500
12/5/1959 12:00,14600
12/6/1959 12:00,14700
12/7/1959 12:00,16500
12/8/1959 12:00,14400
12/9/1959 12:00,14000
12/10/1959 12:00,14000
12/11/1959 12:00,11800
12/12/1959 12:00,12000
12/13/1959 12:00,12300
12/14/1959 12:00,12800
12/15/1959 12:00,13000
12/16/1959 12:00,13300
12/17/1959 12:00,14200
12/18/1959 12:00,15800
12/19/1959 12:00,15600
12/20/1959 12:00,15500
12/21/1959 12:00,13000
12/22/1959 12:00,13000
12/23/1959 12:00,13300
12/24/1959 12:00,13200
12/25/1959 12:00,13300
12/26/1959 12:00,13600
12/27/1959 12:00,15500
12/28/1959 12:00,28600
12/29/1959 12:00,31900
12/30/1959 12:00,35200
12/31/1959 12:00,33000
1/1/1960 12:00,31000
1/2/1960 12:00,32300
1/3/1960 12:00,22000
1/4/1960 12:00,21200
1/5/1960 12:00,15600
1/6/1960 12:00,13200
1/7/1960 12:00,15400
1/8/1960 12:00,18100
1/9/1960 12:00,18100
1/10/1960 12:00,18000
1/11/1960 12:00,17300
1/12/1960 12:00,17600
1/13/1960 12:00,17900
1/14/1960 12:00,19100
1/15/1960 12:00,20000
1/16/1960 12:00,18700
1/17/1960 12:00,18000
1/18/1960 12:00,16800
1/19/1960 12:00,14000
1/20/1960 12:00,15500
1/21/1960 12:00,15000
1/22/1960 12:00,14900
1/23/1960 12:00,13400
1/24/1960 12:00,14000
1/25/1960 12:00,12200
1/26/1960 12:00,12400
1/27/1960 12:00,12600
1/28/1960 12:00,12700
1/29/1960 12:00,13000
1/30/1960 12:00,13700
1/31/1960 12:00,13400
2/1/1960 12:00,13400
2/2/1960 12:00,11200
2/3/1960 12:00,12200
2/4/1960 12:00,12000
2/5/1960 12:00,13400
2/6/1960 12:00,13500
2/7/1960 12:00,13500
2/8/1960 12:00,13500
2/9/1960 12:00,12500
2/10/1960 12:00,13300
2/11/1960 12:00,12600
2/12/1960 12:00,11500
2/13/1960 12:00,12000
2/14/1960 12:00,12300
2/15/1960 12:00,12600
2/16/1960 12:00,10500
2/17/1960 12:00,11300
2/18/1960 12:00,12000
2/19/1960 12:00,11900
2/20/1960 12:00,11800
2/21/1960 12:00,11900
2/22/1960 12:00,11900
2/23/1960 12:00,11900
2/24/1960 12:00,11900
2/25/1960 12:00,11900
2/26/1960 12:00,11900
2/27/1960 12:00,11900
2/28/1960 12:00,12000
2/29/1960 12:00,12000
3/1/1960 12:00,13000
3/2/1960 12:00,12800
3/3/1960 12:00,12500
3/4/1960 12:00,12300
3/5/1960 12:00,12200
3/6/1960 12:00,12000
3/7/1960 12:00,12000
3/8/1960 12:00,11900
3/9/1960 12:00,12000
3/10/1960 12:00,12000
3/11/1960 12:00,12100
3/12/1960 12:00,12100
3/13/1960 12:00,12700
3/14/1960 12:00,14300
3/15/1960 12:00,13500
3/16/1960 12:00,13400
3/17/1960 12:00,13200
3/18/1960 12:00,13200
3/19/1960 12:00,13100
3/20/1960 12:00,13100
3/21/1960 12:00,13100
3/22/1960 12:00,11900
3/23/1960 12:00,12100
3/24/1960 12:00,12000
3/25/1960 12:00,12000
3/26/1960 12:00,12400
3/27/1960 12:00,22900
3/28/1960 12:00,32900
3/29/1960 12:00,36100
3/30/1960 12:00,32100
3/31/1960 12:00,38800
4/1/1960 12:00,40800
4/2/1960 12:00,42000
4/3/1960 12:00,48300
4/4/1960 12:00,48100
4/5/1960 12:00,50000
4/6/1960 12:00,52900
4/7/1960 12:00,55400
4/8/1960 12:00,56200
4/9/1960 12:00,55400
4/10/1960 12:00,56700
4/11/1960 12:00,58900
4/12/1960 12:00,59000
4/13/1960 12:00,59600
4/14/1960 12:00,60500
4/15/1960 12:00,61200
4/16/1960 12:00,61100
4/17/1960 12:00,61100
4/18/1960 12:00,59600
4/19/1960 12:00,57200
4/20/1960 12:00,61400
4/21/1960 12:00,61500
4/22/1960 12:00,59800
4/23/1960 12:00,58700
4/24/1960 12:00,57000
4/25/1960 12:00,56400
4/26/1960 12:00,58200
4/27/1960 12:00,58700
4/28/1960 12:00,61400
4/29/1960 12:00,63800
4/30/1960 12:00,64000
5/1/1960 12:00,63400
5/2/1960 12:00,62400
5/3/1960 12:00,61800
5/4/1960 12:00,61300
5/5/1960 12:00,61400
5/6/1960 12:00,63300
5/7/1960 12:00,61400
5/8/1960 12:00,60600
5/9/1960 12:00,60500
5/10/1960 12:00,61500
5/11/1960 12:00,61200
5/12/1960 12:00,59800
5/13/1960 12:00,57200
5/14/1960 12:00,56300
5/15/1960 12:00,53100
5/16/1960 12:00,49100
5/17/1960 12:00,47900
5/18/1960 12:00,48200
5/19/1960 12:00,46300
5/20/1960 12:00,46300
5/21/1960 12:00,50100
5/22/1960 12:00,56200
5/23/1960 12:00,57000
5/24/1960 12:00,60600
5/25/1960 12:00,60700
5/26/1960 12:00,62300
5/27/1960 12:00,63500
5/28/1960 12:00,63100
5/29/1960 12:00,63700
5/30/1960 12:00,64400
5/31/1960 12:00,65200
6/1/1960 12:00,66200
6/2/1960 12:00,65200
6/3/1960 12:00,64500
6/4/1960 12:00,64300
6/5/1960 12:00,63000
6/6/1960 12:00,61200
6/7/1960 12:00,58300
6/8/1960 12:00,55300
6/9/1960 12:00,51200
6/10/1960 12:00,49300
6/11/1960 12:00,47500
6/12/1960 12:00,41700
6/13/1960 12:00,36800
6/14/1960 12:00,32000
6/15/1960 12:00,29400
6/16/1960 12:00,33800
6/17/1960 12:00,35400
6/18/1960 12:00,31100
6/19/1960 12:00,25700
6/20/1960 12:00,27100
6/21/1960 12:00,23200
6/22/1960 12:00,23100
6/23/1960 12:00,29800
6/24/1960 12:00,30000
6/25/1960 12:00,29000
6/26/1960 12:00,29500
6/27/1960 12:00,30900
6/28/1960 12:00,37000
6/29/1960 12:00,38400
6/30/1960 12:00,34400
7/1/1960 12:00,31300
7/2/1960 12:00,30000
7/3/1960 12:00,31500
7/4/1960 12:00,30500
7/5/1960 12:00,29800
7/6/1960 12:00,26000
7/7/1960 12:00,19400
7/8/1960 12:00,22300
7/9/1960 12:00,23000
7/10/1960 12:00,19800
7/11/1960 12:00,17100
7/12/1960 12:00,17200
7/13/1960 12:00,17300
7/14/1960 12:00,17800
7/15/1960 12:00,17900
7/16/1960 12:00,17900
7/17/1960 12:00,17900
7/18/1960 12:00,18700
7/19/1960 12:00,18900
7/20/1960 12:00,18800
7/21/1960 12:00,18900
7/22/1960 12:00,15700
7/23/1960 12:00,13000
7/24/1960 12:00,12100
7/25/1960 12:00,9000
7/26/1960 12:00,12500
7/27/1960 12:00,15000
7/28/1960 12:00,14800
7/29/1960 12:00,13200
7/30/1960 12:00,12900
7/31/1960 12:00,12800
8/1/1960 12:00,10000
8/2/1960 12:00,8000
8/3/1960 12:00,9600
8/4/1960 12:00,9200
8/5/1960 12:00,9800
8/6/1960 12:00,9800
8/7/1960 12:00,9900
8/8/1960 12:00,10300
8/9/1960 12:00,10300
8/10/1960 12:00,10200
8/11/1960 12:00,10600
8/12/1960 12:00,11000
8/13/1960 12:00,10800
8/14/1960 12:00,10900
8/15/1960 12:00,10800
8/16/1960 12:00,9200
8/17/1960 12:00,9300
8/18/1960 12:00,9400
8/19/1960 12:00,9300
8/20/1960 12:00,9400
8/21/1960 12:00,9400
8/22/1960 12:00,9400
8/23/1960 12:00,9200
8/24/1960 12:00,9300
8/25/1960 12:00,10900
8/26/1960 12:00,10500
8/27/1960 12:00,10600
8/28/1960 12:00,21600
8/29/1960 12:00,30300
8/30/1960 12:00,35000
8/31/1960 12:00,38300
9/1/1960 12:00,38100
9/2/1960 12:00,40400
9/3/1960 12:00,41100
9/4/1960 12:00,39200
9/5/1960 12:00,34000
9/6/1960 12:00,30600
9/7/1960 12:00,27600
9/8/1960 12:00,29900
9/9/1960 12:00,31200
9/10/1960 12:00,28000
9/11/1960 12:00,29200
9/12/1960 12:00,28200
9/13/1960 12:00,22800
9/14/1960 12:00,20800
9/15/1960 12:00,19400
9/16/1960 12:00,17600
9/17/1960 12:00,19500
9/18/1960 12:00,20700
9/19/1960 12:00,19100
9/20/1960 12:00,15500
9/21/1960 12:00,17000
9/22/1960 12:00,15500
9/23/1960 12:00,16000
9/24/1960 12:00,17700
9/25/1960 12:00,20400
9/26/1960 12:00,17800
9/27/1960 12:00,16600
9/28/1960 12:00,20200
9/29/1960 12:00,19400
9/30/1960 12:00,19800
10/1/1960 12:00,20000
10/2/1960 12:00,18600
10/3/1960 12:00,18300
10/4/1960 12:00,16700
10/5/1960 12:00,14300
10/6/1960 12:00,13100
10/7/1960 12:00,13400
10/8/1960 12:00,13600
10/9/1960 12:00,14200
10/10/1960 12:00,15500
10/11/1960 12:00,12200
10/12/1960 12:00,11600
10/13/1960 12:00,11800
10/14/1960 12:00,12600
10/15/1960 12:00,12300
10/16/1960 12:00,12400
10/17/1960 12:00,12400
10/18/1960 12:00,13100
10/19/1960 12:00,13100
10/20/1960 12:00,12500
10/21/1960 12:00,12500
10/22/1960 12:00,12700
10/23/1960 12:00,12800
10/24/1960 12:00,10900
10/25/1960 12:00,11000
10/26/1960 12:00,10400
10/27/1960 12:00,10400
10/28/1960 12:00,10400
10/29/1960 12:00,12000
10/30/1960 12:00,12200
10/31/1960 12:00,12800
11/1/1960 12:00,16200
11/2/1960 12:00,17600
11/3/1960 12:00,22900
11/4/1960 12:00,27400
11/5/1960 12:00,26000
11/6/1960 12:00,23900
11/7/1960 12:00,20800
11/8/1960 12:00,20700
11/9/1960 12:00,20400
11/10/1960 12:00,17600
11/11/1960 12:00,17000
11/12/1960 12:00,17000
11/13/1960 12:00,17300
11/14/1960 12:00,16300
11/15/1960 12:00,16800
11/16/1960 12:00,16100
11/17/1960 12:00,15300
11/18/1960 12:00,15500
11/19/1960 12:00,15800
11/20/1960 12:00,16200
11/21/1960 12:00,16400
11/22/1960 12:00,16400
11/23/1960 12:00,17100
11/24/1960 12:00,17100
11/25/1960 12:00,15500
11/26/1960 12:00,14400
11/27/1960 12:00,14400
11/28/1960 12:00,16600
11/29/1960 12:00,17600
11/30/1960 12:00,16400
12/1/1960 12:00,16000
12/2/1960 12:00,14400
12/3/1960 12:00,15000
12/4/1960 12:00,15000
12/5/1960 12:00,17100
12/6/1960 12:00,16600
12/7/1960 12:00,16300
12/8/1960 12:00,16000
12/9/1960 12:00,15600
12/10/1960 12:00,10700
12/11/1960 12:00,6700
12/12/1960 12:00,6800
12/13/1960 12:00,13300
12/14/1960 12:00,17600
12/15/1960 12:00,17500
12/16/1960 12:00,18500
12/17/1960 12:00,18500
12/18/1960 12:00,18600
12/19/1960 12:00,18600
12/20/1960 12:00,18500
12/21/1960 12:00,14200
12/22/1960 12:00,12700
12/23/1960 12:00,11400
12/24/1960 12:00,11600
12/25/1960 12:00,11600
12/26/1960 12:00,11600
12/27/1960 12:00,10400
12/28/1960 12:00,9000
12/29/1960 12:00,8900
12/30/1960 12:00,8900
12/31/1960 12:00,8900
1/1/1961 12:00,8900
1/2/1961 12:00,8900
1/3/1961 12:00,9000
1/4/1961 12:00,9500
1/5/1961 12:00,9100
1/6/1961 12:00,9600
1/7/1961 12:00,10600
1/8/1961 12:00,11000
1/9/1961 12:00,11000
1/10/1961 12:00,11000
1/11/1961 12:00,10800
1/12/1961 12:00,10700
1/13/1961 12:00,10700
1/14/1961 12:00,10700
1/15/1961 12:00,10800
1/16/1961 12:00,10900
1/17/1961 12:00,10900
1/18/1961 12:00,11000
1/19/1961 12:00,11100
1/20/1961 12:00,11100
1/21/1961 12:00,11100
1/22/1961 12:00,11100
1/23/1961 12:00,11100
1/24/1961 12:00,10000
1/25/1961 12:00,10100
1/26/1961 12:00,9500
1/27/1961 12:00,9200
1/28/1961 12:00,9000
1/29/1961 12:00,8900
1/30/1961 12:00,8900
1/31/1961 12:00,8100
2/1/1961 12:00,8100
2/2/1961 12:00,8100
2/3/1961 12:00,8000
2/4/1961 12:00,8000
2/5/1961 12:00,8000
2/6/1961 12:00,8000
2/7/1961 12:00,8000
2/8/1961 12:00,9200
2/9/1961 12:00,9300
2/10/1961 12:00,9200
2/11/1961 12:00,9200
2/12/1961 12:00,9400
2/13/1961 12:00,9700
2/14/1961 12:00,9600
2/15/1961 12:00,9500
2/16/1961 12:00,9500
2/17/1961 12:00,9500
2/18/1961 12:00,9500
2/19/1961 12:00,9500
2/20/1961 12:00,9900
2/21/1961 12:00,11800
2/22/1961 12:00,11800
2/23/1961 12:00,11800
2/24/1961 12:00,12100
2/25/1961 12:00,13700
2/26/1961 12:00,13800
2/27/1961 12:00,13800
2/28/1961 12:00,13500
3/1/1961 12:00,13800
3/2/1961 12:00,18000
3/3/1961 12:00,22500
3/4/1961 12:00,23600
3/5/1961 12:00,25600
3/6/1961 12:00,21600
3/7/1961 12:00,19500
3/8/1961 12:00,17400
3/9/1961 12:00,17200
3/10/1961 12:00,17000
3/11/1961 12:00,18600
3/12/1961 12:00,18700
3/13/1961 12:00,17300
3/14/1961 12:00,16100
3/15/1961 12:00,15600
3/16/1961 12:00,15400
3/17/1961 12:00,16500
3/18/1961 12:00,16800
3/19/1961 12:00,21100
3/20/1961 12:00,23200
3/21/1961 12:00,23100
3/22/1961 12:00,28200
3/23/1961 12:00,29000
3/24/1961 12:00,35800
3/25/1961 12:00,53000
3/26/1961 12:00,65000
3/27/1961 12:00,66000
3/28/1961 12:00,64200
3/29/1961 12:00,57800
3/30/1961 12:00,56600
3/31/1961 12:00,59900
4/1/1961 12:00,59900
4/2/1961 12:00,54800
4/3/1961 12:00,54000
4/4/1961 12:00,49800
4/5/1961 12:00,48100
4/6/1961 12:00,46500
4/7/1961 12:00,41400
4/8/1961 12:00,38000
4/9/1961 12:00,34000
4/10/1961 12:00,33800
4/11/1961 12:00,29500
4/12/1961 12:00,27200
4/13/1961 12:00,29100
4/14/1961 12:00,24400
4/15/1961 12:00,24000
4/16/1961 12:00,25400
4/17/1961 12:00,31900
4/18/1961 12:00,34300
4/19/1961 12:00,31000
4/20/1961 12:00,39700
4/21/1961 12:00,43900
4/22/1961 12:00,43000
4/23/1961 12:00,42000
4/24/1961 12:00,46200
4/25/1961 12:00,48800
4/26/1961 12:00,49600
4/27/1961 12:00,50300
4/28/1961 12:00,49800
4/29/1961 12:00,49200
4/30/1961 12:00,46500
5/1/1961 12:00,39200
5/2/1961 12:00,37400
5/3/1961 12:00,39700
5/4/1961 12:00,35300
5/5/1961 12:00,31200
5/6/1961 12:00,29200
5/7/1961 12:00,31300
5/8/1961 12:00,32700
5/9/1961 12:00,29100
5/10/1961 12:00,29800
5/11/1961 12:00,33700
5/12/1961 12:00,34800
5/13/1961 12:00,34200
5/14/1961 12:00,33700
5/15/1961 12:00,38600
5/16/1961 12:00,42200
5/17/1961 12:00,44400
5/18/1961 12:00,51500
5/19/1961 12:00,55900
5/20/1961 12:00,61000
5/21/1961 12:00,62700
5/22/1961 12:00,64800
5/23/1961 12:00,65300
5/24/1961 12:00,64900
5/25/1961 12:00,62300
5/26/1961 12:00,60800
5/27/1961 12:00,59000
5/28/1961 12:00,56600
5/29/1961 12:00,52000
5/30/1961 12:00,47800
5/31/1961 12:00,43500
6/1/1961 12:00,40100
6/2/1961 12:00,38200
6/3/1961 12:00,34700
6/4/1961 12:00,31500
6/5/1961 12:00,29100
6/6/1961 12:00,27700
6/7/1961 12:00,26000
6/8/1961 12:00,24200
6/9/1961 12:00,21300
6/10/1961 12:00,23500
6/11/1961 12:00,20300
6/12/1961 12:00,21100
6/13/1961 12:00,24600
6/14/1961 12:00,24800
6/15/1961 12:00,22900
6/16/1961 12:00,19000
6/17/1961 12:00,17200
6/18/1961 12:00,17300
6/19/1961 12:00,20800
6/20/1961 12:00,17400
6/21/1961 12:00,16200
6/22/1961 12:00,19000
6/23/1961 12:00,16200
6/24/1961 12:00,16000
6/25/1961 12:00,15500
6/26/1961 12:00,15500
6/27/1961 12:00,15600
6/28/1961 12:00,14600
6/29/1961 12:00,14000
6/30/1961 12:00,14000
7/1/1961 12:00,14700
7/2/1961 12:00,15100
7/3/1961 12:00,15500
7/4/1961 12:00,15400
7/5/1961 12:00,14700
7/6/1961 12:00,13500
7/7/1961 12:00,12200
7/8/1961 12:00,11800
7/9/1961 12:00,11800
7/10/1961 12:00,10200
7/11/1961 12:00,8700
7/12/1961 12:00,8500
7/13/1961 12:00,8400
7/14/1961 12:00,8300
7/15/1961 12:00,8300
7/16/1961 12:00,8300
7/17/1961 12:00,9800
7/18/1961 12:00,10600
7/19/1961 12:00,10600
7/20/1961 12:00,11400
7/21/1961 12:00,11900
7/22/1961 12:00,12500
7/23/1961 12:00,14000
7/24/1961 12:00,12800
7/25/1961 12:00,13000
7/26/1961 12:00,14100
7/27/1961 12:00,14200
7/28/1961 12:00,14100
7/29/1961 12:00,14100
7/30/1961 12:00,14200
7/31/1961 12:00,16200
8/1/1961 12:00,15200
8/2/1961 12:00,13800
8/3/1961 12:00,14500
8/4/1961 12:00,14800
8/5/1961 12:00,15100
8/6/1961 12:00,14900
8/7/1961 12:00,13600
8/8/1961 12:00,13700
8/9/1961 12:00,13000
8/10/1961 12:00,13100
8/11/1961 12:00,13200
8/12/1961 12:00,13500
8/13/1961 12:00,13500
8/14/1961 12:00,11300
8/15/1961 12:00,12000
8/16/1961 12:00,11300
8/17/1961 12:00,10100
8/18/1961 12:00,10800
8/19/1961 12:00,9800
8/20/1961 12:00,9800
8/21/1961 12:00,9800
8/22/1961 12:00,9800
8/23/1961 12:00,9800
8/24/1961 12:00,9800
8/25/1961 12:00,9800
8/26/1961 12:00,9100
8/27/1961 12:00,9100
8/28/1961 12:00,10100
8/29/1961 12:00,9900
8/30/1961 12:00,9900
8/31/1961 12:00,9800
9/1/1961 12:00,9100
9/2/1961 12:00,9100
9/3/1961 12:00,9100
9/4/1961 12:00,8500
9/5/1961 12:00,8600
9/6/1961 12:00,9000
9/7/1961 12:00,8800
9/8/1961 12:00,9100
9/9/1961 12:00,10500
9/10/1961 12:00,13400
9/11/1961 12:00,12100
9/12/1961 12:00,12400
9/13/1961 12:00,13900
9/14/1961 12:00,11200
9/15/1961 12:00,10600
9/16/1961 12:00,9600
9/17/1961 12:00,9800
9/18/1961 12:00,10900
9/19/1961 12:00,10700
9/20/1961 12:00,10400
9/21/1961 12:00,9800
9/22/1961 12:00,12300
9/23/1961 12:00,13000
9/24/1961 12:00,13000
9/25/1961 12:00,12400
9/26/1961 12:00,9600
9/27/1961 12:00,8800
9/28/1961 12:00,8700
9/29/1961 12:00,9400
9/30/1961 12:00,10000
10/1/1961 12:00,11000
10/2/1961 12:00,11000
10/3/1961 12:00,11500
10/4/1961 12:00,11300
10/5/1961 12:00,10600
10/6/1961 12:00,10400
10/7/1961 12:00,10500
10/8/1961 12:00,9200
10/9/1961 12:00,11600
10/10/1961 12:00,12000
10/11/1961 12:00,14500
10/12/1961 12:00,15600
10/13/1961 12:00,15700
10/14/1961 12:00,16500
10/15/1961 12:00,15000
10/16/1961 12:00,10900
10/17/1961 12:00,11100
10/18/1961 12:00,13100
10/19/1961 12:00,14400
10/20/1961 12:00,13700
10/21/1961 12:00,12000
10/22/1961 12:00,10400
10/23/1961 12:00,11600
10/24/1961 12:00,11500
10/25/1961 12:00,11500
10/26/1961 12:00,12000
10/27/1961 12:00,11900
10/28/1961 12:00,11400
10/29/1961 12:00,12100
10/30/1961 12:00,15100
10/31/1961 12:00,16000
11/1/1961 12:00,14300
11/2/1961 12:00,14900
11/3/1961 12:00,16900
11/4/1961 12:00,16500
11/5/1961 12:00,16800
11/6/1961 12:00,19200
11/7/1961 12:00,19500
11/8/1961 12:00,19100
11/9/1961 12:00,20100
11/10/1961 12:00,20000
11/11/1961 12:00,17700
11/12/1961 12:00,16900
11/13/1961 12:00,16200
11/14/1961 12:00,16000
11/15/1961 12:00,15800